Simultaneous Nadir Overpasses (SNOs) Predictions

Prediction of SNOs between NOAA-21 and METOP-C Satellite Orbit:

Table of predicted SNOs for the next 14.0 days since TLE Epoch: 4/13/2024
Index Date (NOAA-21) Time (NOAA-21) Lat,Lon (NOAA-21) SZA (NOAA-21 ) Date (METOP-C) Time (METOP-C) Lat,Lon (METOP-C) SZA (METOP-C ) Distance(km) Time Diff (sec)
1 04/13/2024 04:38:26 72.60, 102.15 63.49 04/13/2024 04:37:44 72.62, 102.11 63.51 2.10 42
2 04/13/2024 05:29:10 -72.60, -90.53 116.53 04/13/2024 05:28:26 -72.61, -90.58 116.51 2.04 44
3 04/13/2024 06:19:56 72.61, 76.77 63.47 04/13/2024 06:19:06 72.60, 76.74 63.47 1.06 50
4 04/13/2024 07:10:40 -72.60,-115.91 116.55 04/13/2024 07:09:48 -72.59,-115.96 116.55 1.98 52
5 04/13/2024 08:01:26 72.61, 51.38 63.45 04/13/2024 08:00:28 72.58, 51.37 63.44 2.78 58
6 04/13/2024 08:52:10 -72.61,-141.29 116.57 04/13/2024 08:51:09 -72.63,-141.22 116.55 3.13 61
7 04/13/2024 09:42:56 72.61, 26.00 63.43 04/13/2024 09:41:49 72.62, 26.10 63.44 3.29 67
8 04/13/2024 10:33:40 -72.61,-166.68 116.60 04/13/2024 10:32:31 -72.61,-166.60 116.59 2.61 69
9 04/13/2024 11:24:25 72.57, 0.72 63.35 04/13/2024 11:23:12 72.55, 0.62 63.36 3.66 73
10 04/13/2024 12:15:09 -72.56, 168.05 116.67 04/13/2024 12:13:54 -72.54, 167.93 116.67 4.53 75
11 04/13/2024 13:05:50 72.32, -24.15 63.05 04/13/2024 13:04:38 72.33, -25.16 63.13 34.13 72
12 04/13/2024 13:56:33 -72.26, 143.27 117.02 04/13/2024 13:55:21 -72.27, 142.05 116.94 41.43 72
13 04/13/2024 14:47:14 72.01, -48.94 62.70 04/13/2024 14:46:06 72.01, -51.12 62.82 75.16 68
14 04/13/2024 15:37:57 -71.96, 118.48 117.37 04/13/2024 15:36:49 -71.95, 116.09 117.25 82.36 68



Historial Predications of SNOs between NOAA-21 and METOP-C
